Powrót do katalogu

INTERCOSMOS 22

AktywnyNaukaPO
NORAD 12645·PAYLOAD·🇷🇺 Russia

Wystrzelony Aug 7, 1981 z Plesetsk Cosmodrome

Loading…

Następne Przeloty (najbliższe 24 godziny)

TLE

ŚwieżeSource: Space-Track

Epoka: Sep 13, 2026, 22:34 UTC

1 12645U 81075A   26256.94078352  .00000147  00000-0  63369-4 0  9991
2 12645  81.2158 119.2251 0062279 315.1927  44.4228 14.18990503332631

Śledź INTERCOSMOS 22 w czasie rzeczywistym z AllMySat

Download on the App Store